Kiev, Ukraine

10:27 PM EET on December 02, 2016 (GMT +0200)
Kiev

Weather History for 33345 - November, 2013

Change the Weather History Date:

Monday, November 18, 2013

  Actual Average Record
Temperature  
Mean Temperature 40 °F -  
Max Temperature 47 °F - - ()
Min Temperature 33 °F - - ()
Degree Days  
Heating Degree Days 25    
Moisture  
Dew Point 35 °F    
Average Humidity 79    
Maximum Humidity 100    
Minimum Humidity 38    
Precipitation  
Precipitation 0.00 in - - ()
Sea Level Pressure  
Sea Level Pressure 30.32 in    
Wind  
Wind Speed 6 mph ()    
Max Wind Speed 11 mph    
Max Gust Speed -    
Visibility 7.4 miles    
Events      
T = Trace of Precipitation, MM = Missing Value Source: Averaged Metar Reports

Daily Weather History Graph

Daily Weather History Graph

Search for Another Location

Airport or City:

Trip Planner

Search our weather history database for the weather conditions in past years. The results will help you decide how hot, cold, wet, or windy it might be!

Date:

Astronomy

Nov. 18, 2013 Rise Set
Actual Time 7:17 AM EET 4:09 PM EET
Civil Twilight 6:40 AM EET 4:45 PM EET
Nautical Twilight 6:00 AM EET 5:25 PM EET
Astronomical Twilight 5:22 AM EET 6:03 PM EET
Moon 4:54 PM EET (11/18) 7:48 AM EET (11/18)
Length of Visible Light 10h 04m
Length of Day
8h 51m
Full, 99% of the Moon is Illuminated
Nov 18
Full
Nov 25
Last Quarter
Dec 3
New
Dec 9
First Quarter
Dec 17
Full

Hourly Weather History & Observations

Time (EET) Temp. Windchill Dew Point Humidity Pressure Visibility Wind Dir Wind Speed Gust Speed Precip Events Conditions
12:00 AM 41.0 °F 36.5 °F 41.0 °F 100% 30.15 in 6.2 mi WNW 6.7 mph - N/A   Overcast
12:30 AM 42.8 °F 37.6 °F 41.0 °F 93% 30.18 in 6.2 mi NW 8.9 mph - N/A   Overcast
1:00 AM 42.8 °F 37.6 °F 39.2 °F 87% 30.18 in 6.2 mi NW 8.9 mph - N/A   Mostly Cloudy
1:30 AM 42.8 °F 37.6 °F 41.0 °F 93% 30.21 in 6.2 mi NNW 8.9 mph - N/A   Mostly Cloudy
2:00 AM 43 °F - 39 °F 82% 30.23 in 12 mi NNW 6.7 mph - -   Mostly Cloudy
2:00 AM 42.8 °F 37.6 °F 41.0 °F 93% 30.21 in 6.2 mi NW 8.9 mph - N/A   Mostly Cloudy
2:30 AM 42.8 °F 36.7 °F 39.2 °F 87% 30.21 in 6.2 mi NW 11.2 mph - N/A   Mostly Cloudy
3:00 AM 42.8 °F 38.7 °F 39.2 °F 87% 30.21 in 6.2 mi NNW 6.7 mph - N/A   Mostly Cloudy
3:30 AM 42.8 °F 37.6 °F 39.2 °F 87% 30.24 in 6.2 mi NW 8.9 mph - N/A   Mostly Cloudy
4:00 AM 42.8 °F 37.6 °F 39.2 °F 87% 30.24 in 6.2 mi NNW 8.9 mph - N/A   Mostly Cloudy
4:30 AM 42.8 °F 37.6 °F 39.2 °F 87% 30.24 in 6.2 mi North 8.9 mph - N/A   Mostly Cloudy
5:00 AM 42 °F - 37 °F 78% 30.28 in 12 mi North 6.7 mph - -   Mostly Cloudy
5:00 AM 42.8 °F 37.6 °F 39.2 °F 87% 30.24 in 6.2 mi North 8.9 mph - N/A   Mostly Cloudy
5:30 AM 39.2 °F 34.4 °F 37.4 °F 93% 30.27 in 6.2 mi North 6.7 mph - N/A   Mostly Cloudy
6:00 AM 41.0 °F 36.5 °F 37.4 °F 87% 30.27 in 6.2 mi North 6.7 mph - N/A   Mostly Cloudy
6:30 AM 41.0 °F 36.5 °F 37.4 °F 87% 30.27 in 6.2 mi North 6.7 mph - N/A   Mostly Cloudy
7:00 AM 39.2 °F 34.4 °F 37.4 °F 93% 30.30 in 6.2 mi North 6.7 mph - N/A   Mostly Cloudy
7:30 AM 41.0 °F 36.5 °F 37.4 °F 87% 30.30 in 6.2 mi North 6.7 mph - N/A   Mostly Cloudy
8:00 AM 40 °F - 36 °F 82% 30.35 in 12 mi NNE 6.7 mph - -   Mostly Cloudy
8:00 AM 41.0 °F 38.1 °F 37.4 °F 87% 30.33 in 6.2 mi NNE 4.5 mph - N/A   Mostly Cloudy
8:30 AM 41.0 °F 36.5 °F 37.4 °F 87% 30.33 in 6.2 mi NNE 6.7 mph - N/A   Mostly Cloudy
9:00 AM 41.0 °F 35.4 °F 37.4 °F 87% 30.33 in 6.2 mi North 8.9 mph - N/A   Scattered Clouds
9:30 AM 41.0 °F 36.5 °F 35.6 °F 81% 30.33 in 6.2 mi NNE 6.7 mph - N/A   Scattered Clouds
10:00 AM 42.8 °F 38.7 °F 37.4 °F 81% 30.36 in 6.2 mi NE 6.7 mph - N/A   Scattered Clouds
10:30 AM 42.8 °F 38.7 °F 35.6 °F 76% 30.36 in 6.2 mi ENE 6.7 mph - N/A   Scattered Clouds
11:00 AM 43 °F - 36 °F 69% 30.38 in 12 mi NE 4.5 mph - -   Scattered Clouds
11:00 AM 42.8 °F 40.2 °F 35.6 °F 76% 30.36 in 6.2 mi East 4.5 mph - N/A   Scattered Clouds
11:30 AM 44.6 °F 42.3 °F 35.6 °F 71% 30.36 in 6.2 mi East 4.5 mph - N/A   Scattered Clouds
12:00 PM 44.6 °F 42.3 °F 33.8 °F 66% 30.36 in 6.2 mi East 4.5 mph - N/A   Partly Cloudy
12:30 PM 44.6 °F 42.3 °F 35.6 °F 71% 30.36 in 6.2 mi NE 4.5 mph - N/A   Partly Cloudy
1:00 PM 44.6 °F 42.3 °F 33.8 °F 66% 30.36 in 6.2 mi East 4.5 mph - N/A   Partly Cloudy
1:30 PM 46.4 °F 44.4 °F 32.0 °F 57% 30.36 in - ENE 4.5 mph - N/A   Clear
2:00 PM 47 °F - 30 °F 38% 30.38 in 12 mi East 4.5 mph - -   Clear
2:00 PM 46.4 °F 43.0 °F 33.8 °F 62% 30.36 in - ENE 6.7 mph - N/A   Clear
2:30 PM 46.4 °F 43.0 °F 32.0 °F 57% 30.36 in - East 6.7 mph - N/A   Clear
3:00 PM 44.6 °F 42.3 °F 30.2 °F 57% 30.36 in - East 4.5 mph - N/A   Clear
3:30 PM 42.8 °F 38.7 °F 30.2 °F 61% 30.36 in - East 6.7 mph - N/A   Clear
4:00 PM 41.0 °F 36.5 °F 30.2 °F 65% 30.36 in - East 6.7 mph - N/A   Clear
4:30 PM 39.2 °F 36.0 °F 30.2 °F 70% 30.36 in - ESE 4.5 mph - N/A   Clear
5:00 PM 40 °F - 30 °F 57% 30.40 in 12 mi Calm Calm - -  
5:00 PM 37.4 °F 33.9 °F 30.2 °F 75% 30.36 in - ESE 4.5 mph - N/A   Clear
5:30 PM 37.4 °F 32.2 °F 30.2 °F 75% 30.36 in - East 6.7 mph - N/A   Clear
6:00 PM 35.6 °F 31.8 °F 30.2 °F 81% 30.36 in - East 4.5 mph - N/A   Clear
6:30 PM 37.4 °F 32.2 °F 32.0 °F 81% 30.36 in 5.6 mi East 6.7 mph - N/A   Clear
7:00 PM 37.4 °F 32.2 °F 32.0 °F 81% 30.36 in 5.6 mi ESE 6.7 mph - N/A   Clear
7:30 PM 37.4 °F 32.2 °F 32.0 °F 81% 30.36 in - ESE 6.7 mph - N/A   Clear
8:00 PM 35 °F - 31 °F 78% 30.40 in 12 mi SE 2.2 mph - -  
8:00 PM 37.4 °F 32.2 °F 32.0 °F 81% 30.36 in - ESE 6.7 mph - N/A   Clear
8:30 PM 35.6 °F 30.0 °F 32.0 °F 87% 30.36 in - ESE 6.7 mph - N/A   Clear
9:00 PM 35.6 °F 30.0 °F 32.0 °F 87% 30.36 in - ESE 6.7 mph - N/A   Clear
9:30 PM 35.6 °F 28.7 °F 32.0 °F 87% 30.36 in - ESE 8.9 mph - N/A   Clear
10:00 PM 35.6 °F 30.0 °F 32.0 °F 87% 30.36 in - ESE 6.7 mph - N/A   Clear
10:30 PM 35.6 °F 30.0 °F 32.0 °F 87% 30.36 in - ESE 6.7 mph - N/A   Clear
11:00 PM 33 °F - 30 °F 82% 30.40 in 12 mi SSE 4.5 mph - -   Clear
11:00 PM 35.6 °F 30.0 °F 32.0 °F 87% 30.36 in - ESE 6.7 mph - N/A   Clear
11:30 PM 35.6 °F 30.0 °F 32.0 °F 87% 30.36 in - SE 6.7 mph - N/A   Clear